Regional Weather Roundup
Issued by NWS

Home | Current Version | Previous Version | Text Only | Print | Product List | Glossary Off
Versions: 1 2 3 4 5 6 7 8 9 10 11 12 13 14 15 16 17 18 19 20 21 22 23 24 25 26 27 28 29 30 31 32 33 34 35 36 37 38 39 40 41 42 43 44 45 46 47 48 49 50

000
ASUS43 KLMK 221110
RWRKY
KENTUCKY REGIONAL WEATHER ROUNDUP
NATIONAL WEATHER SERVICE LOUISVILLE KY
700 AM EDT FRI JUL 22 2016

NOTE "FAIR" INDICATES FEW OR NO CLOUDS BELOW 12,000 FEET
WITH NO SIGNIFICANT WEATHER AND/OR OBSTRUCTIONS TO VISIBILITY.

KYZ001>023-026-027-061>063-070>075-221200-
WESTERN AND SOUTH CENTRAL KENTUCKY

CITY           SKY/WX    TMP DP  RH WIND       PRES   REMARKS
PADUCAH        CLEAR     80  74  81 CALM      30.04S
HENDERSON      PTCLDY    75  72  88 CALM      30.04R
OWENSBORO      CLOUDY    77  77 100 S7        30.05R
HOPKINSVILLE   CLOUDY    77  74  92 CALM      30.06S
BOWLING GREEN  CLOUDY    75  73  93 CALM      30.07S FOG
GLASGOW        CLOUDY    72  72 100 CALM      30.08S
$$

KYZ024-025-028>034-038-045-046-053-221200-
NORTH CENTRAL KENTUCKY

CITY           SKY/WX    TMP DP  RH WIND       PRES   REMARKS
LOUISVILLE/SDF CLOUDY    78  74  87 SE5       30.04S
LOUISVILLE/LOU CLOUDY    78  73  84 CALM      30.05S
FORT KNOX      CLOUDY    73  72  99 S2        30.05S
$$

KYZ035>037-039>044-047>052-055>060-089>105-221200-
NORTHEAST KENTUCKY

CITY           SKY/WX    TMP DP  RH WIND       PRES   REMARKS
LEXINGTON      CLOUDY    74  69  85 S5        30.09R
COVINGTON      CLOUDY    76  73  91 S8        30.05S
FRANKFORT      CLOUDY    75  71  87 CALM      30.06R
$$

KYZ054-064>069-076>088-106>120-221200-
SOUTHEAST KENTUCKY

CITY           SKY/WX    TMP DP  RH WIND       PRES   REMARKS
JACKSON        CLOUDY    70  65  84 CALM      30.11S
LONDON         MOCLDY    67  63  87 CALM      30.12R
SOMERSET       CLOUDY    66  66 100 CALM      30.11S
MIDDLESBORO    PTCLDY    67  66  99 CALM      30.14S
MONTICELLO     CLOUDY   N/A N/A N/A W9        30.12S HAZE
$$





USA.gov is the U.S. government's official web portal to all federal, state and local government web resources and services.